User: anonymous   Login
Location: Unspecified
(0.0000°N, 0.0000°E)
Time: 05:17:30
(UTC+00:00)
Language:

RANDEV - Orbit

View from above orbital plane
View from above orbital plane
View from above satellite
View from above satellite

Ground track
Ground track

The orbit is defined by the following mean orbital elements,

1 52898U          26121.92360964 +.00000000 +00000-0 +21109-3 0 00002
2 52898  98.2138 266.3176 0008225 161.5280 198.6222 14.63611756    06
Epoch (UTC): 01 May 2026 22:09:59
Eccentricity: 0.0008225
inclination: 98.2138°
perigee height: 676 km
apogee height: 687 km
right ascension of ascending node: 266.3176°
argument of perigee: 161.5280°
revolutions per day: 14.63611756
mean anomaly at epoch: 198.6222°

The dashed part of the orbit path shows where the satellite is in the earth's shadow,  

DLR